Location: Ferintosh
(52.7647°N, 112.9692°W)
Time: 22:44:30
(UTC+00:00)

A-11 Canister half - Pass Details

Date: 19 May 2024
Orbit: 1524 x 1683 km, 47.3° (Epoch: 19 June)

Event Time Altitude Azimuth Distance (km) Brightness Sun altitude
Rises 08:07:00 0° 258° (WSW) 4,734 11.3 -16.8°
Reaches altitude 10° 08:10:03 10° 255° (WSW) 3,769 10.8 -16.8°
Maximum altitude 08:19:29 65° 177° (S) 1,751 9.0 -16.5°
Drops below altitude 10° 08:29:15 10° 99° (E) 3,895 11.2 -16.1°
Sets 08:32:27 0° 97° (E) 4,899 11.8 -16.0°
